Regional Weather Roundup
Issued by NWS

Home | Current Version | Previous Version | Graphics & Text | Print | Product List | Glossary On
Versions: 1 2 3 4 5 6 7 8 9 10 11 12 13 14 15 16 17 18 19 20 21 22 23 24 25 26 27 28 29 30 31 32 33 34 35 36 37 38 39 40 41 42
000
ASUS45 KBOU 171310
RWRCO

WEATHER ROUNDUP FOR COLORADO
NATIONAL WEATHER SERVICE PUEBLO CO
600 AM MST SAT FEB 17 2018

NOTE: "FAIR" INDICATES FEW OR NO CLOUDS BELOW 12000 FEET WITH NO
SIGNIFICANT WEATHER AND/OR OBSTRUCTIONS TO VISIBILITY.

COZ001>005-013-030-031-171400-
...NORTHWEST COLORADO...

CITY           SKY/WX    TMP DP  RH WIND       PRES   REMARKS
CRAIG          PTCLDY    11   3  70 SW5       30.17R WCI   3
HAYDEN         MOCLDY    21  10  62 CALM      30.17R
MEEKER         CLEAR     18  11  74 CALM      30.17R
RABBIT EARS PA NOT AVBL
STEAMBOAT SPGS CLOUDY    24  10  55 CALM      30.15R
WALDEN         FAIR      19  10  68 W25G31    30.05S WCI   2
$$

COZ006>008-011-171400-
...WEST CENTRAL VALLEYS...

CITY           SKY/WX    TMP DP  RH WIND       PRES   REMARKS
GRAND JUNCTION CLEAR     24  19  81 CALM      30.21R
MONTROSE       CLEAR     18  15  88 S3        30.22R
EAGLE          MOCLDY    23  14  68 E8        30.19R WCI  14
RIFLE          CLEAR     19  13  77 CALM      30.21R
DELTA          NOT AVBL
NUCLA          FAIR      23  16  74 E9        30.24S WCI  13
$$

COZ017>023-064>068-171400-
...SOUTHWEST COLORADO...

CITY           SKY/WX    TMP DP  RH WIND       PRES   REMARKS
DURANGO        CLEAR     17  15  92 NE6       30.20R WCI   9
CORTEZ         PTCLDY    17  13  84 CALM      30.22R
PAGOSA SPRINGS FAIR      15  13  92 CALM      30.20R
TELLURIDE      PTCLDY    18   6  58 SE7       30.22S WCI   9
WOLF CREEK PAS   N/A     10   9  92 S9        30.20S WCI  -2
$$

COZ009-010-012-014-032>034-037-058>063-171400-
...CENTRAL COLORADO...

CITY           SKY/WX    TMP DP  RH WIND       PRES   REMARKS
ASPEN          CLEAR     10   5  80 S9        30.15R WCI  -3
BUENA VISTA    FAIR      28   5  38 W15G21    30.07S WCI  16
COPPER MTN     CLEAR     12   5  73 W24G33    30.01R WCI  -8
BERTHOUD PASS  CLOUDY     3  -8  60 NW40G62   29.88R WCI -24
COTTONWOOD PAS CLEAR     28  10  47 W28G54    29.99F WCI  13
GUNNISON       CLEAR     16  10  77 N6        30.18R WCI   7
KREMMLING      CLOUDY    32  12  43 W9        30.12R WCI  24
LEADVILLE      CLEAR     15   6  67 N13G24    30.05R WCI   1
MONARCH PASS     N/A     10   5  79 W40G47    30.17R WCI -14
SALIDA         FAIR      33   8  34 W31G39    30.13S WCI  19
SUNLIGHT       CLEAR     10   7  85 SW15G26     N/A  WCI  -6
WILKERSON PASS CLEAR     14   0  52 W16G25    29.97S WCI  -2
$$

COZ069>075-171400-
...SAN LUIS VALLEY/SANGRE DE CRISTO MOUNTAINS...

CITY           SKY/WX    TMP DP  RH WIND       PRES   REMARKS
ALAMOSA        PTCLDY     9   5  84 W6        30.14R WCI  -1
DEL NORTE      FAIR      22  10  59 W14       30.13S WCI   9
LA VETA PASS   CLEAR     21  10  63 S38G49    30.08R WCI   1
SAGUACHE       CLEAR     14   5  67 N7        30.14S WCI   4
$$

COZ035-036-038>040-171400-
...NORTHERN COLORADO FRONT RANGE...

CITY           SKY/WX    TMP DP  RH WIND       PRES   REMARKS
DENVER INTL AP CLEAR     30  11  45 N8        29.98R WCI  22
DMNS CITY PARK NOT AVBL
AURORA         CLEAR     22  12  64 SE12      29.99R WCI  11
FRONT RANGE AP FAIR      31  15  51 NW3       29.99R
ERIE MUNI ARPT FAIR      31  12  44 CALM      30.03R
BOULDER MUN AP FAIR      34   9  35 E5        29.96R WCI  30
CENTENNIAL     PTCLDY    28  13  53 S8        29.98R WCI  20
BROOMFIELD     CLEAR     37   9  30 W22G36    29.99R
LOVELAND       CLEAR     35   9  33 N20       29.96R WCI  24
LONGMONT       FAIR      40   6  24 W25       29.97R
$$

COZ041-046-047-076>085-087-088-171400-
...PIKES PEAK/PALMER DIVIDE AND SOUTHERN FOOTHILLS...

CITY           SKY/WX    TMP DP  RH WIND       PRES   REMARKS
COLO. SPRINGS  CLEAR     41   3  20 NW24G36   29.98R
A. F. ACADEMY  CLEAR     33   2  26 N9        29.97R WCI  25
SCHRIEVER AFB  NOT AVBL
CHEYENNE MTN   NOT AVBL
ELLICOTT         N/A    N/A N/A N/A NE10      29.97R
FALCON         FAIR      22  11  62 N8        29.99R WCI  13
FORT CARSON    CLEAR     31  11  43 W5        29.97R WCI  26
LIMON          CLEAR     25  13  60 NW13      29.98R WCI  14
MONUMENT HILL  CLEAR     19   9  63 SE5       30.00R WCI  13
CANON CITY     CLEAR     41  10  28 W12       29.97R
WALSENBURG     NOT AVBL
TRINIDAD       CLEAR     36  12  37 N7        29.99R
$$

COZ042>045-048>051-090-091-171400-
...NORTHEAST COLORADO...

CITY           SKY/WX    TMP DP  RH WIND       PRES   REMARKS
GREELEY ARPT   CLEAR     32  12  43 N16       30.00R WCI  21
AKRON          CLEAR     33  13  43 NW22G33   29.98R WCI  21
BURLINGTON     CLEAR     30  17  58 N10       29.98R WCI  21
WRAY           FAIR      27  19  74 W8        30.00R WCI  18
YUMA           NOT AVBL
STERLING       FAIR      32  18  55 NW12      29.97R WCI  23
HOLYOKE        FAIR      34  19  55 NW9       29.97R WCI  26
FORT MORGAN    FAIR      34   8  33 NW25G31   30.00S WCI  22
$$

COZ086-089-092>099-171400-
...SOUTHEAST COLORADO...

CITY           SKY/WX    TMP DP  RH WIND       PRES   REMARKS
PUEBLO         CLEAR     44  13  28 NW9G18    29.95R
LA JUNTA       CLEAR     29  15  56 NE10      30.01R WCI  20
LAMAR          CLEAR     30  15  53 N9        30.00R WCI  22
SPRINGFIELD      N/A     30  16  56 N12       30.00R WCI  20
$$





USA.gov is the U.S. government's official web portal to all federal, state and local government web resources and services.